Location: Deposit
(42.0600°N, 75.4280°W)
Time: 03:21:06
(UTC-05:00)

ISS - Pass Details

Date: 29 October 2019
Orbit: 412 x 421 km, 51.6° (Epoch: 12 November)

Event Time Altitude Azimuth Distance (km) Brightness Sun altitude
Exits shadow 06:09:43 31° 307° (NW) 765 -2.9 -15.5°
Maximum altitude 06:10:24 35° 335° (NNW) 706 -2.9 -15.4°
Drops below altitude 10° 06:13:33 10° 43° (NE) 1,506 -0.4 -14.8°
Sets 06:15:46 0° 53° (NE) 2,371 0.8 -14.4°
